Regional Weather Roundup
Issued by NWS Upton, NY

Current Version | Previous Version | Graphics & Text | Print | Product List | Glossary Off
Versions: 1 2 3 4 5 6 7 8 9 10 11 12 13 14 15 16 17 18 19 20 21 22 23 24 25 26 27 28

000
ASUS41 KOKX 260809
RWROKX

REGIONAL WEATHER ROUNDUP
NATIONAL WEATHER SERVICE NEW YORK NY
400 AM EDT WED APR 26 2017

NOTE: "FAIR" INDICATES FEW OR NO CLOUDS BELOW 12,000 FEET WITH NO
SIGNIFICANT WEATHER AND/OR OBSTRUCTIONS TO VISIBILITY.

NYZ071-072-176-178-NJZ106-104-260900-
NEW YORK CITY METRO AREA

CITY           SKY/WX    TMP DP  RH WIND       PRES   REMARKS
Central Park   CLOUDY    54  54 100 E10       29.79F FOG
Wall St Helipt CLOUDY    54  54 100 NE17      29.76F
Bronx Bot Gard   N/A     55  54  94 E7        29.76F
LaGuardia APRT DRZL/FOG  53  51  93 NE16      29.76F VSB 1
Kennedy INTL   LGT RAIN  55  54  96 N12       29.76F FOG
Breezy Point     N/A     54 N/A N/A N12         N/A
Newark/Liberty DRIZZLE   54  54 100 N14       29.76F FOG
Teterboro      DRIZZLE   54  53  97 N8        29.76F FOG
$$

NYZ177-179-078>081-260900-
LONG ISLAND NEW YORK

CITY           SKY/WX    TMP DP  RH WIND       PRES   REMARKS
Jones Beach      N/A     54 N/A N/A NE14        N/A
Matinecock PT    N/A     52 N/A N/A E17         N/A
Farmingdale    CLOUDY    53  53 100 N13       29.74F
MacArthur/ISP  CLOUDY    53  53 100 N16       29.74F FOG
Shirley        LGT RAIN  56  56 100 VRB5      29.75F
Mt Sinai Harb    N/A    N/A N/A N/A N8G14       N/A
Westhampton    CLOUDY    56  54  93 E12G24    29.72F
East Hampton   LGT RAIN  53  52  97 E16G25    29.73F
Montauk        NOT AVBL
$$

NYZ052-065-067-260900-
HUDSON VALLEY

CITY           SKY/WX    TMP DP  RH WIND       PRES   REMARKS
White Plains   LGT RAIN  54  53  97 NE10      29.76F FOG
Larchmont Harb   N/A     54 N/A N/A N16         N/A
Croton O-T Hud   N/A     52 N/A N/A N2G8        N/A
Newburgh       CLOUDY    52  52 100 MISG      29.83F FOG
Montgomery     LGT RAIN  51  49  92 NE13      29.82F FOG
Poughkeepsie   CLOUDY    50  49  96 N6        29.82F FOG
Albany         DRIZZLE   50  48  93 N7        29.89F
$$

NJZ001-105-106-008-010-013-015-019>022-104-260900-
NEW JERSEY

CITY           SKY/WX    TMP DP  RH WIND       PRES   REMARKS
Newark/Liberty DRIZZLE   54  54 100 N14       29.76F FOG
Teterboro      DRIZZLE   54  53  97 N8        29.76F FOG
Caldwell       LGT RAIN  53  52  96 NE6       29.78F FOG
Somerville     CLOUDY    55  53  93 N6        29.73F
Linden         DRIZZLE   55  54  94 NE10      29.75F
Sussex         CLOUDY    51  50  96 NE9       29.80F
Andover          N/A     50  50 100 NE7       29.79F
Trenton        CLOUDY    55  55 100 NE12      29.72S FOG
Millville      CLOUDY    59  59 100 NE8       29.66S
Atlantic City  LGT RAIN  58  56  93 NE8       29.66F
Wrightstown    CLOUDY    55  55  98 N8        29.69F FOG
Toms River     LGT RAIN  54  54 100 NE8       29.71F FOG
Belmar         LGT RAIN  53  53 100 NE12G17   29.72S VSB 1
$$

PAZ047>061-062-071-260900-
EASTERN PENNSYLVANIA

CITY           SKY/WX    TMP DP  RH WIND       PRES   REMARKS
Philadelphia   LGT RAIN  56  54  93 NE17      29.71S
Allentown      CLOUDY    53  50  89 NE13      29.75F
Scranton       CLOUDY    53  50  89 E8        29.79S
$$

CTZ002-004>006-009-010-012-RIZ004-006-007-MAZ004-011-015-260900-
SOUTHERN NEW ENGLAND
 IN CT

CITY           SKY/WX    TMP DP  RH WIND       PRES   REMARKS
Bradley INTL   LGT RAIN  48  47  96 N15       29.87F FOG
Hartford       LGT RAIN  49  48  97 N10       29.86F FOG
Danbury        CLOUDY    49  49 100 NE10      29.82F FOG
Wtrbury/Oxford CLOUDY    48  45  87 NE13      29.83F
Bridgeport     LGT RAIN  54  51  90 N10       29.78F FOG
Meriden        LGT RAIN  51  48  89 N9        29.84F FOG
New Haven      CLOUDY    50  49  96 N15       29.79F FOG
Chester        LGT RAIN  54  54 100 NE8G17    29.81F
Groton         RAIN      56  54  93 E16G25    29.79F
Wilimantic     LGT RAIN  52  50  93 NE6       29.86F FOG

 IN RI

CITY           SKY/WX    TMP DP  RH WIND       PRES   REMARKS
Providence     HVY RAIN  52  52 100 NE8       29.88F FOG
Block Island   NOT AVBL
Westerly       LGT RAIN  56  55  97 E16G25    29.82F
 IN MA

CITY           SKY/WX    TMP DP  RH WIND       PRES   REMARKS
Boston         LGT RAIN  49  49 100 NE13      29.95F FOG
Worcester      LGT RAIN  43  41  93 N13       29.90F VSB 1/2
Westfield      LGT RAIN  47  47 100 N14       29.88F FOG
Provincetown   CLOUDY    53  52  96 SE13      29.94F FOG
Nantucket      CLOUDY    53  51  93 E23G31    29.88F FOG
$$

ANZ330-335-338-340-345-350-353-355-260900-
COASTAL MARINE OBSERVATIONS


STATION/POSITION TIME  SKY/WX   TEMP    WIND        PRES    VSBY  WAVE
                                AIR SEA DIR/SP/G                  HT/PER
                 (UTC)          (F)     (DEG/KT/KT) (MB)    (MI)  (FT/S)
NY HARB ENTRANCE 0650            49 48   30/ 10/ 12 1007.5          9/10
20 S FIRE ISLAND 0750            50 47   40/  8/ 10 1005.7         11/11
GREAT SOUTH BAY  0730            56 55   50/ 14/ 17   N/A
23 SSW MONTAUK P 0650            51 45              1006.9         10/11
15 E BARNEGAT LI 0730               49                N/A          10/11
HUDSON CANYON    0650            53 47  120/ 16/ 17 1005.1         14/11
KINGS POINT      0748            53 48   80/  6/ 10 1007.6
EXECUTION ROCKS  NOT AVBL
CENTRAL LI SOUND 0745            51      30/ 12/ 19   N/A           3/ 5
EASTERN LI SOUND NOT AVBL
ROBBINS REEF     0748            54      30/ 16/ 17 1007.5
$$


>>>>>>>>>>>>>>>>>>>>>>>>>>>> KEY <<<<<<<<<<<<<<<<<<<<<<<<<<<
>                                                          <
>     SKY/WX - Sky Condition/Present Weather               <
>     TMP    - Temperature in Fahrenheit                   <
>     DP     - Dew Point in Fahrenheit                     <
>     RH     - Relative Humidity in Percent                <
>     WIND   - Direction (from) and Speed in MPH           <
>     PRES   - Mean Sea Level Pressure (inches of Hg)      <
>     WCI    - Wind Chill Index                            <
>     VSB    - VISIBILITY IN MILES                         <
>     HX     - HEAT INDEX                                  <
>     TC     - TEMPERATURE IN CELSIUS                      <
>     VRB    - VARIABLE WIND DIRECTION                     <
>                                                          <
>>>>>>>>>>>>>>>>>>>>>>>>>>>> KEY <<<<<<<<<<<<<<<<<<<<<<<<<<<




USA.gov is the U.S. government's official web portal to all federal, state and local government web resources and services.